Regional Weather Roundup
Issued by NWS

Home | Current Version | Previous Version | Graphics & Text | Print | Product List | Glossary On
Versions: 1 2 3 4 5 6 7 8 9 10 11 12 13 14 15 16 17 18 19 20 21 22 23 24 25 26 27 28 29 30 31 32 33 34 35 36 37 38 39 40 41 42 43 44 45 46 47 48 49 50
000
ASUS43 KTOP 232259
RWRKS

WEATHER ROUNDUP FOR KANSAS
NATIONAL WEATHER SERVICE GOODLAND KS
500 PM CST THU FEB 23 2017

NOTE:  "FAIR" INDICATES FEW OR NO CLOUDS BELOW 12,000 FEET WITH NO
SIGNIFICANT WEATHER AND/OR OBSTRUCTIONS TO VISIBILITY.

KSZ001>006-013>018-027>032-041>047-240000-
NORTHWEST KANSAS

CITY           SKY/WX    TMP DP  RH WIND       PRES   REMARKS
GOODLAND       CLOUDY    31  29  92 N14       29.59R WCI  21
HAYS             N/A     41  33  73 N29G36    29.47R
HILL CITY      CLOUDY    35  33  92 NE21G29   29.56R FOG     WCI  24
RUSSELL        FAIR      46  35  65 N23G32    29.43R
$$

KSZ061>065-074>080-084>089-240000-
SOUTHWEST KANSAS

CITY           SKY/WX    TMP DP  RH WIND       PRES   REMARKS
DODGE CITY     FAIR      58  37  45 N33G49    29.35R HAZE
GARDEN CITY    FAIR      46  33  60 N33G44    29.45R
GREAT BEND     FAIR      59  41  51 N31G37    29.36R
LIBERAL        FAIR      64  27  24 N32G40    29.40R
$$

KSZ066>073-081>083-090>101-240000-
SOUTHEAST KANSAS

CITY           SKY/WX    TMP DP  RH WIND       PRES   REMARKS
CHANUTE        FAIR      76  48  37 S15       29.34F
COFFEYVILLE    FAIR      79  48  33 S15       29.34F
HUTCHINSON     FAIR      72  47  40 SE9       29.30F
MEDICINE LODGE   N/A     81  34  18 SW14G23   29.26F
NEWTON         FAIR      71  47  42 S10       29.31F
PARSONS        FAIR      79  47  32 S9        29.35F
WICHITA INTL   FAIR      73  49  42 SE12      29.29F
WICHITA JABRA  FAIR      73  49  42 SE12      29.30F
WINFIELD       FAIR      78  52  40 S6        29.33S
$$

KSZ007>012-019>026-033>040-048>060-102>105-240000-
NORTHEAST KANSAS

CITY           SKY/WX    TMP DP  RH WIND       PRES   REMARKS
CONCORDIA      CLOUDY    42  36  79 N17G25    29.48S
EMPORIA        FAIR      71  49  45 S7        29.36R
LAWRENCE       FAIR      59  47  64 NE12      29.41S
MANHATTAN      FAIR      52  41  66 NE17G24   29.43R
OLATHE IND     FAIR      60  48  64 NE7       29.40F
OLATHE EXE     FAIR      57  49  74 NE12      29.40F
SALINA         FAIR      57  42  57 N20G30    29.37S
TOPEKA BILLARD FAIR      62  49  62 E12       29.40F
TOPEKA FORBES  FAIR      62  47  57 E12       29.40F
$$




USA.gov is the U.S. government's official web portal to all federal, state and local government web resources and services.